Voltar ao catálogo

THORAD DELTA 1 DEB

AtivoSSO
NORAD 9984·DEBRIS·🇺🇸 United States

Lançado Nov 15, 1974 de Vandenberg Space Force Base

Loading…

Próximas Passagens (próximas 24 horas)

TLE

AtualizadoSource: Space-Track

Época: Sep 14, 2026, 19:21 UTC

1 09984U 74089EB  26257.80669464 -.00000046  00000-0  43441-5 0  9995
2 09984 102.3436 256.4891 0095149 348.5637 188.0914 12.40461268348415

Acompanhe THORAD DELTA 1 DEB em tempo real com AllMySat

Download on the App Store